Weather History for St. Paul, MN

Change the Weather History Date:

Sunday, June 2, 2013

  Actual Average Record
Temperature  
Mean Temperature 57 °F -  
Max Temperature 66 °F 71 °F 82 °F (2005)
Min Temperature 48 °F 51 °F 44 °F (1999)
Degree Days  
Heating Degree Days 8    
Growing Degree Days 7 (Base 50)    
Moisture  
Dew Point 40 °F    
Average Humidity 55    
Maximum Humidity 71    
Minimum Humidity 36    
Precipitation  
Precipitation 0.00 in - - ()
Sea Level Pressure  
Sea Level Pressure 30.03 in    
Wind  
Wind Speed 10 mph (North)    
Max Wind Speed 15 mph    
Max Gust Speed 24 mph    
Visibility 10 miles    
Events      
Averages and records for this station are not official NWS values.
T = Trace of Precipitation, MM = Missing Value Source: NWS Daily Summary

Daily Weather History Graph

Daily Weather History Graph

Search for Another Location

Airport:

Trip Planner

Search our weather history database for the weather conditions in past years. The results will help you decide how hot, cold, wet, or windy it might be!

Date:

Astronomy

Jun. 02, 2013 Rise Set
Actual Time 5:28 AM CDT 8:52 PM CDT
Civil Twilight 4:52 AM CDT 9:29 PM CDT
Nautical Twilight 4:04 AM CDT 10:16 PM CDT
Astronomical Twilight 3:04 AM CDT 11:17 PM CDT
Moon 2:09 AM CDT (6/2) 3:11 PM CDT (6/2)
Length of Visible Light 16h 37m
Length of Day
15h 24m
Waning Crescent, 30% of the Moon is Illuminated
Jun 2
Waning Crescent
Jun 8
New
Jun 16
First Quarter
Jun 23
Full
Jun 29
Last Quarter

Hourly Weather History & Observations

Time (CDT) Temp. Dew Point Humidity Pressure Visibility Wind Dir Wind Speed Gust Speed Precip Events Conditions
12:53 AM 52.0 °F 39.9 °F 63% 29.95 in 10.0 mi North 15.0 mph - N/A   Overcast
1:53 AM 50.0 °F 39.0 °F 66% 29.98 in 10.0 mi North 15.0 mph 24.2 mph N/A   Mostly Cloudy
2:53 AM 50.0 °F 39.0 °F 66% 29.99 in 10.0 mi North 6.9 mph 17.3 mph N/A   Overcast
3:53 AM 50.0 °F 41.0 °F 71% 29.99 in 10.0 mi North 10.4 mph - N/A   Overcast
4:53 AM 50.0 °F 41.0 °F 71% 30.01 in 10.0 mi NNW 9.2 mph - N/A   Overcast
5:22 AM 50.0 °F 39.2 °F 66% 30.02 in 10.0 mi North 12.7 mph - N/A   Overcast
5:53 AM 50.0 °F 39.0 °F 66% 30.03 in 10.0 mi North 10.4 mph - N/A   Overcast
6:53 AM 48.9 °F 39.0 °F 69% 30.05 in 10.0 mi NNE 12.7 mph - N/A   Overcast
7:53 AM 50.0 °F 39.0 °F 66% 30.07 in 10.0 mi North 6.9 mph - N/A   Overcast
8:23 AM 51.8 °F 39.2 °F 62% 30.08 in 10.0 mi North 10.4 mph - N/A   Scattered Clouds
8:53 AM 52.0 °F 37.9 °F 59% 30.09 in 10.0 mi North 11.5 mph 19.6 mph N/A   Clear
9:53 AM 54.0 °F 39.0 °F 57% 30.09 in 10.0 mi North 13.8 mph 18.4 mph N/A   Partly Cloudy
10:53 AM 55.0 °F 39.0 °F 55% 30.08 in 10.0 mi NNW 12.7 mph - N/A   Mostly Cloudy
11:53 AM 57.9 °F 39.0 °F 49% 30.07 in 10.0 mi North 8.1 mph 17.3 mph N/A   Scattered Clouds
12:53 PM 60.1 °F 39.0 °F 46% 30.07 in 10.0 mi Variable 5.8 mph - N/A   Clear
1:53 PM 63.0 °F 39.9 °F 43% 30.06 in 10.0 mi North 10.4 mph - N/A   Clear
2:53 PM 63.0 °F 39.0 °F 41% 30.04 in 10.0 mi NW 6.9 mph 16.1 mph N/A   Partly Cloudy
3:53 PM 64.9 °F 39.9 °F 40% 30.03 in 10.0 mi North 13.8 mph - N/A   Partly Cloudy
4:53 PM 66.0 °F 37.9 °F 36% 30.02 in 10.0 mi Variable 4.6 mph - N/A   Clear
5:21 PM 66.2 °F 39.2 °F 37% 30.02 in 10.0 mi WNW 8.1 mph - N/A   Partly Cloudy
5:53 PM 66.0 °F 39.0 °F 37% 30.01 in 10.0 mi NNW 4.6 mph - N/A   Clear
6:53 PM 64.9 °F 37.9 °F 37% 30.00 in 10.0 mi North 5.8 mph - N/A   Clear
7:53 PM 63.0 °F 39.9 °F 43% 30.00 in 10.0 mi NNW 4.6 mph - N/A   Clear
8:53 PM 63.0 °F 39.9 °F 43% 30.01 in 10.0 mi Calm Calm - N/A   Clear
9:53 PM 57.0 °F 43.0 °F 59% 30.01 in 10.0 mi South 3.5 mph - N/A   Clear
10:53 PM 57.9 °F 46.0 °F 65% 30.03 in 10.0 mi Calm Calm - N/A   Clear
11:53 PM 54.0 °F 43.0 °F 66% 30.03 in 10.0 mi Calm Calm - N/A   Clear